Home > Weather > Flekkefjord > Past weeks

Flag for Norway Past Weather in Flekkefjord, Norway — Yesterday and Last 2 Weeks

Now
63 °F

Mild.


Feels Like: 63 °F
Forecast: 58 / 62 °F
Wind: 8 mph from West

Location: Lista Fyr

Current Time: Jul 28, 2016 at 10:56:11 AM

Latest Report: Jul 28, 2016 at 10:00 AM


Visibility: N/A

Pressure: 29.86 "Hg

Humidity: 88%

Dew Point: 59 °F

Location of FlekkefjordLocation

Past Weather in Flekkefjord — Graph

°F

Flekkefjord Temperature Yesterday

Maximum temperature yesterday: 62 °F (at 10:00 AM)
Minimum temperature yesterday: 60 °F (at 11:00 PM)
Average temperature yesterday: 61 °F

High & Low Weather Summary for the Past Weeks

 TemperatureHumidityPressure
High73 °F (Jul 20, 6:00 PM)100% (Jul 13, 9:00 AM)30.15 "Hg (Jul 13, 9:00 AM)
Low54 °F (Jul 17, 6:00 AM)61% (Jul 24, 6:00 PM)29.72 "Hg (Jul 27, 8:00 PM)
Average61 °F94%29.98 "Hg
* Reported Jul 13 9:00 AM — Jul 28 9:00 AM, Flekkefjord, Weather by CustomWeather, © 2016

Note: Actual official high and low records may vary slightly from our data, if they occured in-between our weather recording intervals... More about our weather records

Advertising

Flekkefjord Weather History for the Previous 24 Hours

Scroll right to see more
 ConditionsComfort  
Time TempWeatherWind HumidityBarometerVisibility
9:00 AM
Thu, Jul 28
61 °FCool.9 mph95%29.85 "HgN/A
8:00 AM61 °FOvercast.9 mph92%29.84 "Hg12 mi
7:00 AM60 °FCool.9 mph93%29.84 "HgN/A
6:00 AM60 °FCool.9 mph97%29.84 "HgN/A
5:00 AM60 °FCool.10 mph98%29.83 "HgN/A
4:00 AM60 °FCool.12 mph87%29.83 "HgN/A
3:00 AM58 °FCool.8 mphN/A29.83 "HgN/A
2:00 AM60 °FCool.9 mph85%29.82 "HgN/A
1:00 AM60 °FCool.10 mph84%29.81 "HgN/A
12:00 AM60 °FCool.12 mph87%29.80 "HgN/A
11:00 PM
Wed, Jul 27
60 °FCool.9 mph89%29.79 "HgN/A
10:00 PM60 °FCool.12 mph86%29.77 "HgN/A
9:00 PM60 °FCool.16 mph96%29.74 "HgN/A
8:00 PM60 °FRain. Low clouds.12 mph100%29.72 "Hg6 mi
7:00 PM62 °FCool.15 mph100%29.72 "HgN/A
6:00 PM62 °FCool.17 mph100%29.75 "HgN/A
5:00 PM61 °FCool.12 mph100%29.78 "HgN/A
4:00 PM60 °FCool.13 mphN/A29.81 "HgN/A
3:00 PM61 °FCool.8 mph100%29.83 "HgN/A
2:00 PM60 °FLight rain. Low clouds.13 mph96%29.86 "Hg9 mi
1:00 PM62 °FCool.14 mph100%29.87 "HgN/A
12:00 PM62 °FCool.14 mph100%29.88 "HgN/A
11:00 AM61 °FRain. Low clouds.13 mph100%29.89 "Hg9 mi
10:00 AM62 °FCool.13 mph100%29.89 "HgN/A
Weather by CustomWeather, © 2016

See weather overviewHow to use our weather pages